Flag for United Kingdom Weather past 2 weeks in Edinburgh, Scotland, United Kingdom

Now
46 °F

Drizzle. Low clouds.


Feels Like: 42 °F
Forecast: 46 / 58 °F
Wind: 8 mph from Northeast

Location: Edinburgh Airport


UV Index: 0 (Low)

Visibility: 1 mi


Pressure: 30.09 "Hg

Humidity: 100%

Dew point: 46 °F

Location of EdinburghLocation

Historic Weather in Edinburgh

°F

Edinburgh temperature yesterday

Maximum temperature yesterday: 61 °F (at 2:20 PM)
Minimum temperature yesterday: 46 °F (at 6:20 AM)
Average temperature yesterday: 52 °F

Past Weeks' High & Low Weather Summary

 TemperatureHumidityPressure
High61 °F (Apr 15, 2:50 PM)100% (Apr 11, 5:20 AM)30.39 "Hg (Apr 11, 5:20 AM)
Low30 °F (Apr 15, 4:50 AM)39% (Apr 14, 3:50 PM)29.71 "Hg (Apr 12, 9:20 AM)
Average48 °F77%30.05 "Hg
* Reported Apr 10 5:20 AM — Apr 25 5:50 AM, Edinburgh, Weather by CustomWeather, © 2014

Note: Actual official high and low records may vary slightly from our data, if they occured in-between our weather recording intervals... More about our weather records

Advertising

Historic Weather Conditions — Data for Previous 24 hours

 ConditionsComfort  
Time TempWeatherWind HumidityBarometerVisibility
5:50 AM
Apr 25
46 °FFog.8 mph100%30.07 "Hg2 mi
5:20 AM46 °FMostly cloudy.6 mph100%30.09 "Hg4 mi
4:50 AM46 °FMostly cloudy.7 mph100%30.09 "Hg4 mi
4:20 AM46 °FFog.7 mph93%30.09 "Hg3 mi
3:50 AM45 °FFog.7 mph100%30.09 "Hg1 mi
3:20 AM45 °FFog.8 mph100%30.09 "Hg1 mi
2:50 AM45 °FFog.9 mph100%30.09 "Hg1 mi
2:20 AM45 °FFog.7 mph100%30.12 "Hg1 mi
1:50 AM45 °FFog.8 mph100%30.12 "Hg1 mi
1:20 AM45 °FFog.9 mph93%30.12 "Hg1 mi
12:20 AM45 °FFog.9 mph100%30.12 "Hg0 mi
11:50 PM
Apr 24
46 °FFog.8 mph93%30.12 "Hg0 mi
11:20 PM46 °FFog.10 mph100%30.12 "Hg3 mi
10:50 PM46 °FClear.6 mph93%30.12 "Hg10 mi
10:20 PM46 °FClear.6 mph93%30.12 "Hg10 mi
9:50 PM46 °FClear.9 mph93%30.12 "Hg10 mi
9:20 PM48 °FSunny.7 mph87%30.12 "Hg10 mi
8:50 PM48 °FSunny.7 mph87%30.12 "Hg10 mi
8:20 PM50 °FSunny.7 mph88%30.09 "Hg10 mi
7:50 PM50 °FPassing clouds.9 mph88%30.09 "HgN/A
7:20 PM52 °FPassing clouds.10 mph88%30.09 "HgN/A
6:50 PM54 °FSunny.9 mph82%30.09 "Hg10 mi
6:20 PM57 °FPassing clouds.8 mph59%30.09 "HgN/A
5:50 PM57 °FPassing clouds.10 mph59%30.09 "HgN/A
5:20 PM57 °FPassing clouds.12 mph63%30.09 "HgN/A
4:50 PM59 °FSunny.12 mph63%30.09 "Hg10 mi
4:20 PM59 °FPassing clouds.6 mph59%30.09 "HgN/A
3:50 PM59 °FPassing clouds.10 mph63%30.09 "HgN/A
3:20 PM57 °FSunny.10 mph72%30.09 "Hg10 mi
2:50 PM59 °FPassing clouds.6 mph59%30.09 "HgN/A
2:20 PM61 °FPassing clouds.9 mph52%30.09 "HgN/A
1:50 PM57 °FPassing clouds.3 mph67%30.09 "HgN/A
1:20 PM57 °FPassing clouds.6 mph67%30.09 "HgN/A
12:50 PM59 °FPartly sunny.6 mph63%30.09 "HgN/A
12:20 PM59 °FPassing clouds.10 mph59%30.09 "HgN/A
11:50 AM55 °FPassing clouds.6 mph77%30.09 "HgN/A
11:20 AM54 °FSprinkles. Scattered clouds.2 mph77%30.09 "HgN/A
10:50 AM55 °FScattered clouds.6 mph63%30.09 "HgN/A
10:20 AM55 °FScattered clouds.6 mph67%30.09 "HgN/A
9:50 AM54 °FPassing clouds.6 mph72%30.09 "HgN/A
9:20 AM54 °FPassing clouds.6 mph72%30.09 "HgN/A
8:20 AM50 °FPassing clouds.3 mph88%30.09 "HgN/A
7:50 AM50 °FPassing clouds.2 mph88%30.09 "HgN/A
7:20 AM48 °FPassing clouds.2 mph94%30.09 "HgN/A
Weather by CustomWeather, © 2014

See weather overview